Time,TemperatureF,DewpointF,PressureIn,WindDirection,WindDirectionDegrees,WindSpeedMPH,WindSpeedGustMPH,Humidity,HourlyPrecipIn,Conditions,Clouds,dailyrainin,SoftwareType,DateUTC
2013-03-30 00:02:00,44.0,39.0,30.20,NNE,16,2.0,6.0,83,0.00,,,0.00,,2013-03-30 04:02:00,
2013-03-30 00:13:00,44.0,39.0,30.20,NNE,16,2.0,6.0,83,0.00,,,0.00,,2013-03-30 04:13:00,
2013-03-30 00:23:00,44.0,39.0,30.20,NE,37,2.0,6.0,83,0.00,,,0.00,,2013-03-30 04:23:00,
2013-03-30 00:33:00,44.0,39.0,30.20,NE,45,2.0,5.0,83,0.00,,,0.00,,2013-03-30 04:33:00,
2013-03-30 00:43:00,44.0,39.0,30.20,NE,45,2.0,5.0,83,0.00,,,0.00,,2013-03-30 04:43:00,
2013-03-30 00:52:00,44.0,39.0,30.20,NE,47,3.0,6.0,82,0.00,,,0.00,,2013-03-30 04:52:00,
2013-03-30 01:02:00,44.0,39.0,30.20,NNE,27,1.0,6.0,83,0.00,,,0.00,,2013-03-30 05:02:00,
2013-03-30 01:12:00,44.0,39.0,30.20,NNE,27,1.0,6.0,83,0.00,,,0.00,,2013-03-30 05:12:00,
2013-03-30 01:22:00,44.0,40.0,30.19,NE,35,2.0,5.0,85,0.00,,,0.00,,2013-03-30 05:22:00,
2013-03-30 01:32:00,43.0,39.0,30.19,NE,44,1.0,5.0,86,0.00,,,0.00,,2013-03-30 05:32:00,
2013-03-30 01:42:00,43.0,39.0,30.19,NE,44,1.0,5.0,86,0.00,,,0.00,,2013-03-30 05:42:00,
2013-03-30 01:52:00,43.0,39.0,30.19,North,3,2.0,7.0,86,0.00,,,0.00,,2013-03-30 05:52:00,
2013-03-30 02:02:00,43.0,39.0,30.18,NE,41,2.0,5.0,86,0.00,,,0.00,,2013-03-30 06:02:00,
2013-03-30 02:12:00,43.0,39.0,30.18,NE,41,2.0,5.0,86,0.00,,,0.00,,2013-03-30 06:12:00,
2013-03-30 02:23:00,43.0,39.0,30.18,NE,45,3.0,7.0,87,0.00,,,0.00,,2013-03-30 06:23:00,
2013-03-30 02:32:00,43.0,40.0,30.18,NNE,23,2.0,5.0,88,0.00,,,0.00,,2013-03-30 06:32:00,
2013-03-30 02:42:00,43.0,40.0,30.18,NNE,23,2.0,5.0,88,0.00,,,0.00,,2013-03-30 06:42:00,
2013-03-30 02:52:00,43.0,39.0,30.18,NNE,20,2.0,5.0,87,0.00,,,0.00,,2013-03-30 06:52:00,
2013-03-30 03:02:00,43.0,39.0,30.18,NNE,28,1.0,4.0,87,0.00,,,0.00,,2013-03-30 07:02:00,
2013-03-30 03:12:00,43.0,39.0,30.18,NNE,28,1.0,4.0,87,0.00,,,0.00,,2013-03-30 07:12:00,
2013-03-30 03:22:00,43.0,40.0,30.17,NNE,32,2.0,5.0,89,0.00,,,0.00,,2013-03-30 07:22:00,
2013-03-30 03:32:00,43.0,40.0,30.16,NE,45,2.0,5.0,88,0.00,,,0.00,,2013-03-30 07:32:00,
2013-03-30 03:42:00,43.0,40.0,30.16,NE,45,2.0,5.0,88,0.00,,,0.00,,2013-03-30 07:42:00,
2013-03-30 03:52:00,43.0,40.0,30.16,NE,40,2.0,5.0,88,0.00,,,0.00,,2013-03-30 07:52:00,
2013-03-30 04:02:00,43.0,40.0,30.16,NNE,25,3.0,5.0,88,0.00,,,0.00,,2013-03-30 08:02:00,
2013-03-30 04:12:00,43.0,40.0,30.16,NNE,25,3.0,5.0,88,0.00,,,0.00,,2013-03-30 08:12:00,
2013-03-30 04:22:00,43.0,40.0,30.16,North,10,1.0,5.0,88,0.00,,,0.00,,2013-03-30 08:22:00,
2013-03-30 04:32:00,43.0,40.0,30.15,NNE,18,1.0,3.0,90,0.00,,,0.00,,2013-03-30 08:32:00,
2013-03-30 04:42:00,43.0,40.0,30.15,NNE,18,1.0,3.0,90,0.00,,,0.00,,2013-03-30 08:42:00,
2013-03-30 04:52:00,43.0,41.0,30.15,NNE,20,1.0,5.0,91,0.00,,,0.00,,2013-03-30 08:52:00,
2013-03-30 05:02:00,43.0,40.0,30.15,NNE,20,1.0,3.0,90,0.00,,,0.00,,2013-03-30 09:02:00,
2013-03-30 05:12:00,43.0,40.0,30.15,North,10,0.0,7.0,90,0.00,,,0.00,,2013-03-30 09:12:00,
2013-03-30 05:22:00,43.0,40.0,30.15,North,10,0.0,7.0,90,0.00,,,0.00,,2013-03-30 09:22:00,
2013-03-30 05:33:00,43.0,40.0,30.15,NNE,31,2.0,5.0,90,0.00,,,0.00,,2013-03-30 09:33:00,
2013-03-30 05:43:00,43.0,40.0,30.15,NNE,31,2.0,5.0,90,0.00,,,0.00,,2013-03-30 09:43:00,
2013-03-30 05:53:00,43.0,40.0,30.14,NE,51,3.0,5.0,90,0.00,,,0.00,,2013-03-30 09:53:00,
2013-03-30 06:03:00,43.0,40.0,30.14,NE,51,2.0,5.0,89,0.00,,,0.00,,2013-03-30 10:03:00,
2013-03-30 06:13:00,43.0,40.0,30.14,NE,51,2.0,5.0,89,0.00,,,0.00,,2013-03-30 10:13:00,
2013-03-30 06:23:00,42.0,40.0,30.14,NE,37,1.0,4.0,91,0.00,,,0.00,,2013-03-30 10:23:00,
2013-03-30 06:33:00,42.0,40.0,30.14,NE,37,1.0,2.0,91,0.00,,,0.00,,2013-03-30 10:33:00,
2013-03-30 06:42:00,42.0,40.0,30.14,NE,37,1.0,2.0,91,0.00,,,0.00,,2013-03-30 10:42:00,
2013-03-30 06:52:00,42.0,40.0,30.14,NE,42,0.0,2.0,91,0.00,,,0.00,,2013-03-30 10:52:00,
2013-03-30 07:04:00,42.0,40.0,30.15,NE,34,0.0,5.0,91,0.00,,,0.00,,2013-03-30 11:04:00,
2013-03-30 07:12:00,42.0,40.0,30.15,NE,34,0.0,5.0,91,0.00,,,0.00,,2013-03-30 11:12:00,
2013-03-30 07:22:00,42.0,40.0,30.16,NNE,32,0.0,2.0,91,0.00,,,0.00,,2013-03-30 11:22:00,
2013-03-30 07:33:00,42.0,40.0,30.15,NNE,32,1.0,2.0,92,0.00,,,0.00,,2013-03-30 11:33:00,
2013-03-30 07:42:00,42.0,40.0,30.15,NNE,32,1.0,2.0,92,0.00,,,0.00,,2013-03-30 11:42:00,
2013-03-30 07:52:00,42.0,40.0,30.16,NNE,32,0.0,2.0,91,0.00,,,0.00,,2013-03-30 11:52:00,
2013-03-30 08:02:00,42.0,40.0,30.15,NNE,32,0.0,2.0,91,0.00,,,0.00,,2013-03-30 12:02:00,
2013-03-30 08:13:00,42.0,40.0,30.15,NNE,32,0.0,2.0,91,0.00,,,0.00,,2013-03-30 12:13:00,
2013-03-30 08:22:00,42.0,40.0,30.16,NNE,28,3.0,6.0,91,0.00,,,0.00,,2013-03-30 12:22:00,
2013-03-30 08:33:00,42.0,39.0,30.16,NE,48,1.0,3.0,90,0.00,,,0.00,,2013-03-30 12:33:00,
2013-03-30 08:42:00,42.0,39.0,30.16,NE,48,1.0,3.0,90,0.00,,,0.00,,2013-03-30 12:42:00,
2013-03-30 08:52:00,42.0,40.0,30.17,NE,48,1.0,2.0,93,0.00,,,0.00,,2013-03-30 12:52:00,
2013-03-30 09:02:00,42.0,40.0,30.17,NNE,27,0.0,4.0,92,0.00,,,0.00,,2013-03-30 13:02:00,
2013-03-30 09:12:00,42.0,40.0,30.17,NNE,27,0.0,4.0,92,0.00,,,0.00,,2013-03-30 13:12:00,
2013-03-30 09:22:00,42.0,40.0,30.17,NNE,28,1.0,6.0,92,0.00,,,0.00,,2013-03-30 13:22:00,
2013-03-30 09:32:00,42.0,40.0,30.18,NE,37,1.0,2.0,92,0.00,,,0.00,,2013-03-30 13:32:00,
2013-03-30 09:43:00,42.0,40.0,30.18,NE,37,1.0,2.0,92,0.00,,,0.00,,2013-03-30 13:43:00,
2013-03-30 09:52:00,42.0,40.0,30.18,NE,35,2.0,3.0,94,0.00,,,0.00,,2013-03-30 13:52:00,
2013-03-30 10:03:00,43.0,41.0,30.18,NNE,23,1.0,6.0,93,0.00,,,0.00,,2013-03-30 14:03:00,
2013-03-30 10:12:00,43.0,41.0,30.18,NNE,23,1.0,6.0,93,0.00,,,0.00,,2013-03-30 14:12:00,
2013-03-30 10:23:00,43.0,41.0,30.18,NE,51,1.0,3.0,93,0.00,,,0.00,,2013-03-30 14:23:00,
2013-03-30 10:32:00,43.0,41.0,30.18,NE,37,1.0,4.0,92,0.00,,,0.00,,2013-03-30 14:32:00,
2013-03-30 10:42:00,43.0,41.0,30.18,NE,37,1.0,4.0,92,0.00,,,0.00,,2013-03-30 14:42:00,
2013-03-30 10:52:00,43.0,41.0,30.17,NE,40,2.0,7.0,94,0.00,,,0.00,,2013-03-30 14:52:00,
2013-03-30 11:03:00,43.0,41.0,30.17,NE,49,1.0,5.0,93,0.00,,,0.00,,2013-03-30 15:03:00,
2013-03-30 11:12:00,43.0,41.0,30.17,NE,49,1.0,5.0,93,0.00,,,0.00,,2013-03-30 15:12:00,
2013-03-30 11:22:00,44.0,42.0,30.17,East,83,2.0,3.0,93,0.00,,,0.00,,2013-03-30 15:22:00,
2013-03-30 11:34:00,44.0,42.0,30.17,East,83,1.0,2.0,94,0.00,,,0.00,,2013-03-30 15:34:00,
2013-03-30 11:43:00,44.0,42.0,30.17,East,83,1.0,2.0,94,0.00,,,0.00,,2013-03-30 15:43:00,
2013-03-30 11:52:00,45.0,43.0,30.17,NE,45,2.0,5.0,94,0.00,,,0.00,,2013-03-30 15:52:00,
2013-03-30 12:03:00,45.0,43.0,30.17,NE,54,2.0,5.0,93,0.00,,,0.00,,2013-03-30 16:03:00,
2013-03-30 12:13:00,45.0,43.0,30.17,East,85,2.0,4.0,91,0.00,,,0.00,,2013-03-30 16:13:00,
2013-03-30 12:23:00,45.0,43.0,30.17,East,85,2.0,4.0,91,0.00,,,0.00,,2013-03-30 16:23:00,
2013-03-30 12:33:00,47.0,45.0,30.16,East,80,0.0,4.0,91,0.00,,,0.00,,2013-03-30 16:33:00,
2013-03-30 12:43:00,47.0,45.0,30.16,East,80,0.0,4.0,91,0.00,,,0.00,,2013-03-30 16:43:00,
2013-03-30 12:52:00,47.0,44.0,30.16,ENE,75,2.0,5.0,89,0.00,,,0.00,,2013-03-30 16:52:00,
2013-03-30 13:02:00,50.0,47.0,30.15,NE,38,0.0,7.0,88,0.00,,,0.00,,2013-03-30 17:02:00,
2013-03-30 13:13:00,50.0,47.0,30.15,NE,38,0.0,7.0,88,0.00,,,0.00,,2013-03-30 17:13:00,
2013-03-30 13:23:00,51.0,47.0,30.14,ENE,66,3.0,5.0,86,0.00,,,0.00,,2013-03-30 17:23:00,
2013-03-30 13:32:00,52.0,46.0,30.14,SE,133,0.0,5.0,81,0.00,,,0.00,,2013-03-30 17:32:00,
2013-03-30 13:42:00,52.0,46.0,30.14,SE,133,0.0,5.0,81,0.00,,,0.00,,2013-03-30 17:42:00,
2013-03-30 13:52:00,54.0,47.0,30.13,ENE,73,0.0,3.0,77,0.00,,,0.00,,2013-03-30 17:52:00,
2013-03-30 14:03:00,54.0,46.0,30.12,South,182,3.0,6.0,73,0.00,,,0.00,,2013-03-30 18:03:00,
2013-03-30 14:13:00,55.0,45.0,30.11,SE,124,2.0,3.0,69,0.00,,,0.00,,2013-03-30 18:13:00,
2013-03-30 14:22:00,55.0,45.0,30.11,SE,124,2.0,3.0,69,0.00,,,0.00,,2013-03-30 18:22:00,
2013-03-30 14:33:00,56.0,44.0,30.10,East,95,0.0,5.0,64,0.00,,,0.00,,2013-03-30 18:33:00,
2013-03-30 14:42:00,56.0,44.0,30.10,East,95,0.0,5.0,64,0.00,,,0.00,,2013-03-30 18:42:00,
2013-03-30 14:53:00,57.0,44.0,30.09,ESE,102,2.0,5.0,61,0.00,,,0.00,,2013-03-30 18:53:00,
2013-03-30 15:03:00,58.0,44.0,30.09,ENE,76,3.0,6.0,59,0.00,,,0.00,,2013-03-30 19:03:00,
2013-03-30 15:13:00,58.0,44.0,30.09,ENE,76,3.0,6.0,59,0.00,,,0.00,,2013-03-30 19:13:00,
2013-03-30 15:22:00,59.0,44.0,30.07,ENE,75,1.0,5.0,58,0.00,,,0.00,,2013-03-30 19:22:00,
2013-03-30 15:32:00,61.0,45.0,30.06,SSW,210,1.0,3.0,56,0.00,,,0.00,,2013-03-30 19:32:00,
2013-03-30 15:42:00,61.0,45.0,30.06,SSW,210,1.0,3.0,56,0.00,,,0.00,,2013-03-30 19:42:00,
2013-03-30 15:52:00,61.0,44.0,30.08,SSW,206,2.0,5.0,53,0.00,,,0.00,,2013-03-30 19:52:00,
2013-03-30 16:02:00,61.0,44.0,30.07,East,97,1.0,3.0,53,0.00,,,0.00,,2013-03-30 20:02:00,
2013-03-30 16:12:00,61.0,44.0,30.07,East,97,1.0,3.0,53,0.00,,,0.00,,2013-03-30 20:12:00,
2013-03-30 16:22:00,61.0,44.0,30.06,ENE,59,0.0,5.0,53,0.00,,,0.00,,2013-03-30 20:22:00,
2013-03-30 16:33:00,61.0,43.0,30.06,ENE,58,1.0,3.0,52,0.00,,,0.00,,2013-03-30 20:33:00,
2013-03-30 16:42:00,61.0,43.0,30.06,ENE,58,1.0,3.0,52,0.00,,,0.00,,2013-03-30 20:42:00,
2013-03-30 16:52:00,62.0,44.0,30.06,ENE,58,0.0,3.0,51,0.00,,,0.00,,2013-03-30 20:52:00,
2013-03-30 17:03:00,62.0,44.0,30.05,NE,55,2.0,5.0,52,0.00,,,0.00,,2013-03-30 21:03:00,
2013-03-30 17:13:00,62.0,44.0,30.05,NE,55,2.0,5.0,52,0.00,,,0.00,,2013-03-30 21:13:00,
2013-03-30 17:22:00,62.0,44.0,30.04,NE,51,0.0,4.0,52,0.00,,,0.00,,2013-03-30 21:22:00,
2013-03-30 17:34:00,61.0,43.0,30.04,NE,51,0.0,5.0,52,0.00,,,0.00,,2013-03-30 21:34:00,
2013-03-30 17:43:00,61.0,43.0,30.04,NE,51,0.0,5.0,52,0.00,,,0.00,,2013-03-30 21:43:00,
2013-03-30 17:52:00,61.0,44.0,30.01,NE,51,0.0,3.0,54,0.00,,,0.00,,2013-03-30 21:52:00,
2013-03-30 18:03:00,61.0,43.0,30.00,NNE,30,1.0,5.0,52,0.00,,,0.00,,2013-03-30 22:03:00,
2013-03-30 18:13:00,61.0,43.0,30.00,NNE,30,1.0,5.0,52,0.00,,,0.00,,2013-03-30 22:13:00,
2013-03-30 18:23:00,62.0,44.0,30.00,NNE,30,2.0,5.0,52,0.00,,,0.00,,2013-03-30 22:23:00,
2013-03-30 18:33:00,61.0,44.0,30.00,NE,40,0.0,3.0,53,0.00,,,0.00,,2013-03-30 22:33:00,
2013-03-30 18:43:00,61.0,44.0,30.00,NE,40,0.0,3.0,53,0.00,,,0.00,,2013-03-30 22:43:00,
2013-03-30 18:53:00,60.0,44.0,30.01,NNE,24,3.0,4.0,55,0.00,,,0.00,,2013-03-30 22:53:00,
2013-03-30 19:02:00,58.0,46.0,30.02,West,271,2.0,7.0,65,0.01,,,0.01,,2013-03-30 23:02:00,
2013-03-30 19:13:00,58.0,46.0,30.02,West,271,2.0,7.0,65,0.01,,,0.01,,2013-03-30 23:13:00,
2013-03-30 19:22:00,56.0,47.0,30.03,WSW,256,3.0,11.0,73,0.02,,,0.02,,2013-03-30 23:22:00,
2013-03-30 19:33:00,54.0,48.0,30.03,SW,219,3.0,7.0,80,0.05,,,0.05,,2013-03-30 23:33:00,
2013-03-30 19:42:00,54.0,48.0,30.03,SW,219,3.0,7.0,80,0.05,,,0.05,,2013-03-30 23:42:00,
2013-03-30 19:52:00,54.0,50.0,30.03,WSW,248,1.0,5.0,85,0.07,,,0.07,,2013-03-30 23:52:00,
2013-03-30 20:03:00,54.0,50.0,30.02,WSW,248,1.0,5.0,87,0.08,,,0.09,,2013-03-31 00:03:00,
2013-03-30 20:12:00,54.0,50.0,30.02,WSW,248,1.0,5.0,87,0.08,,,0.09,,2013-03-31 00:12:00,
2013-03-30 20:22:00,54.0,51.0,30.02,WSW,248,0.0,0.0,88,0.09,,,0.11,,2013-03-31 00:22:00,
2013-03-30 20:32:00,54.0,51.0,30.01,WSW,248,0.0,0.0,89,0.06,,,0.11,,2013-03-31 00:32:00,
2013-03-30 20:43:00,54.0,51.0,30.01,WSW,248,0.0,0.0,89,0.06,,,0.11,,2013-03-31 00:43:00,
2013-03-30 20:52:00,54.0,51.0,30.01,WSW,248,0.0,0.0,90,0.05,,,0.12,,2013-03-31 00:52:00,
2013-03-30 21:02:00,54.0,51.0,30.00,WSW,248,0.0,0.0,91,0.03,,,0.12,,2013-03-31 01:02:00,
2013-03-30 21:12:00,54.0,51.0,30.00,WSW,248,0.0,0.0,91,0.03,,,0.12,,2013-03-31 01:12:00,
2013-03-30 21:22:00,53.0,50.0,30.00,WSW,248,0.0,0.0,91,0.01,,,0.12,,2013-03-31 01:22:00,
2013-03-30 21:32:00,53.0,50.0,29.99,WSW,248,0.0,0.0,91,0.02,,,0.13,,2013-03-31 01:32:00,
2013-03-30 21:42:00,53.0,50.0,29.99,WSW,248,0.0,0.0,91,0.02,,,0.13,,2013-03-31 01:42:00,
2013-03-30 21:52:00,53.0,51.0,29.99,WSW,248,0.0,0.0,92,0.01,,,0.13,,2013-03-31 01:52:00,
2013-03-30 22:02:00,53.0,51.0,29.99,WSW,248,0.0,2.0,92,0.02,,,0.14,,2013-03-31 02:02:00,
2013-03-30 22:13:00,53.0,51.0,29.99,WSW,248,0.0,2.0,92,0.02,,,0.14,,2013-03-31 02:13:00,
2013-03-30 22:22:00,54.0,52.0,29.99,SW,224,0.0,2.0,93,0.03,,,0.15,,2013-03-31 02:22:00,
2013-03-30 22:32:00,54.0,52.0,29.98,SW,224,0.0,2.0,93,0.02,,,0.15,,2013-03-31 02:32:00,
2013-03-30 22:43:00,54.0,52.0,29.98,SW,224,0.0,2.0,93,0.02,,,0.15,,2013-03-31 02:43:00,
2013-03-30 22:52:00,54.0,52.0,29.98,SW,224,0.0,1.0,93,0.04,,,0.17,,2013-03-31 02:52:00,
2013-03-30 23:02:00,54.0,52.0,29.98,SW,215,0.0,2.0,94,0.05,,,0.19,,2013-03-31 03:02:00,
2013-03-30 23:13:00,54.0,52.0,29.98,SW,215,0.0,2.0,94,0.05,,,0.19,,2013-03-31 03:13:00,
2013-03-30 23:22:00,54.0,52.0,29.98,SE,143,0.0,3.0,94,0.07,,,0.22,,2013-03-31 03:22:00,
2013-03-30 23:33:00,54.0,52.0,29.98,SE,143,2.0,3.0,94,0.09,,,0.24,,2013-03-31 03:33:00,
2013-03-30 23:43:00,54.0,52.0,29.98,SE,143,2.0,3.0,94,0.09,,,0.24,,2013-03-31 03:43:00,
2013-03-30 23:53:00,54.0,52.0,29.98,SSE,168,1.0,2.0,94,0.08,,,0.25,,2013-03-31 03:53:00,